Tracking 17265 objects as of 2-September-2015
HD Live streaming from Space Station

Track Soyuz TMA-18M
and Space Station

INTELSAT 26 (JCSAT 4)

Track INTELSAT 26 (JCSAT 4) now!
INTELSAT 26 (JCSAT 4) is classified as:


NORAD ID: 24732
Int'l Code: 1997-007A
Perigee: 35,778.9 km
Apogee: 35,807.6 km
Inclination: 6.4 °
Period: 1,436.1 minutes
Semi major axis: 42164 km
RCS: 25.1785 m2 (large)
Launch date: February 17, 1997
Source: International Telecommunications Satellite Organization (ITSO)

12 C-band, 12 Ku-band; relay voice, data, television signals via Ku-band to eastern Asia, Australia, New Zealand, India; via C-band to eastern and southern Asia and Hawaii. Digital TV.
Your satellite tracking list
Your tracking list is empty





NASA's NSSDC Master Catalog

Two Line Element Set (TLE):
1 24732U 97007A   15244.62373771 -.00000031  00000-0  00000+0 0  9997
2 24732   6.3936  55.1427 0003413 102.5533 113.1212  1.00273550 67783

Source of the keplerian elements: AFSPC

N2YO: 358